DW0326 Weather Reports


Display with metric or nautical units.
time (UTC)temp
F
wind
direction
speed
MPH
gust
MPH
rain 1hr
in
rain 24hr
in
rain mn
in
humidity
%
barometer
mb
20260503210933 82 88 2.0 7.0 0.00 0.00 0.00 44 1015.2
20260503210032 81 72 0.0 7.0 0.00 0.00 0.00 44 1015.2
20260503204232 82 97 0.0 7.0 0.00 0.00 0.00 44 1015.3
20260503203332 81 155 0.0 4.0 0.00 0.00 0.00 39 1015.8
20260503202432 82 56 0.0 5.0 0.00 0.00 0.00 42 1015.9
20260503201532 82 84 1.0 7.0 0.00 0.00 0.00 43 1015.9
20260503200632 81 150 0.0 5.0 0.00 0.00 0.00 41 1016.2
20260503194833 81 167 1.0 8.0 0.00 0.00 0.00 39 1016.4
20260503193932 82 80 1.0 11.0 0.00 0.00 0.00 44 1016.5
20260503193032 82 66 1.0 14.0 0.00 0.00 0.00 39 1016.5
20260503192132 82 66 1.0 14.0 0.00 0.00 0.00 40 1016.9
20260503184533 81 108 1.0 6.0 0.00 0.00 0.00 42 1017.3
20260503183632 81 87 1.0 7.0 0.00 0.00 0.00 40 1017.4
20260503181832 81 66 2.0 11.0 0.00 0.00 0.00 43 1017.7
20260503180932 81 100 1.0 10.0 0.00 0.00 0.00 44 1017.9
20260503180033 80 25 1.0 8.0 0.00 0.00 0.00 43 1017.9
20260503175132 80 85 1.0 9.0 0.00 0.00 0.00 45 1018.1
20260503174232 80 102 1.0 4.0 0.00 0.00 0.00 45 1018.1
20260503173333 80 105 0.0 3.0 0.00 0.00 0.00 44 1018.5
20260503172433 80 100 1.0 7.0 0.00 0.00 0.00 44 1018.5
20260503170632 79 152 1.0 6.0 0.00 0.00 0.00 46 1018.6
20260503150932 74 182 3.0 9.0 0.00 0.00 0.00 57 1018.5
20260503131232 58 0 0.0 0.0 0.00 0.00 0.00 97 1018.0
20260503130332 58 0 0.0 0.0 0.00 0.00 0.00 98 1017.9
20260503110631 56 0 0.0 0.0 0.00 0.00 0.00 95 1017.0
20260503080632 58 0 0.0 0.0 0.00 0.00 0.00 91 1016.6
20260503072131 59 0 0.0 0.0 0.00 0.00 0.00 89 1016.8
20260503071231 59 0 0.0 0.0 0.00 0.00 0.00 89 1016.8
20260503070332 59 0 0.0 0.0 0.00 0.00 0.00 88 1016.6
20260503054231 60 0 0.0 0.0 0.00 0.00 0.00 86 1016.7
20260503053332 60 0 0.0 0.0 0.00 0.00 0.00 86 1016.5
20260503052432 60 0 0.0 0.0 0.00 0.00 0.00 86 1016.5
20260503051532 60 0 0.0 0.0 0.00 0.00 0.00 85 1016.5
20260503050632 61 0 0.0 0.0 0.00 0.00 0.00 85 1016.4
20260503045732 61 0 0.0 0.0 0.00 0.00 0.00 84 1016.4
20260503043931 61 0 0.0 0.0 0.00 0.00 0.00 83 1016.3
20260503043031 62 0 0.0 0.0 0.00 0.00 0.00 83 1016.3
20260503042132 62 0 0.0 0.0 0.00 0.00 0.00 82 1016.4
20260503041232 62 0 0.0 0.0 0.00 0.00 0.00 81 1016.4
20260503040331 62 0 0.0 0.0 0.00 0.00 0.00 82 1016.3
20260503035431 62 0 0.0 0.0 0.00 0.00 0.00 81 1015.9
20260503034532 63 0 0.0 0.0 0.00 0.00 0.00 79 1015.9
20260503033632 63 0 0.0 0.0 0.00 0.00 0.00 79 1015.8
20260503031832 64 0 0.0 0.0 0.00 0.01 0.00 78 1015.8
20260503030931 64 0 0.0 0.0 0.00 0.01 0.00 78 1015.8
20260503030031 64 0 0.0 0.0 0.00 0.01 0.00 76 1015.8
20260503025132 65 0 0.0 0.0 0.00 0.01 0.00 75 1015.7
20260503024231 65 0 0.0 0.0 0.00 0.01 0.00 75 1015.7
20260503023332 66 0 0.0 0.0 0.00 0.01 0.00 72 1015.4
20260503022432 66 0 0.0 0.0 0.00 0.01 0.00 73 1015.3
20260503021531 67 0 0.0 0.0 0.00 0.02 0.00 71 1015.3
20260503015731 68 0 0.0 0.0 0.00 0.04 0.00 67 1015.3
20260503013931 69 0 0.0 0.0 0.00 0.05 0.00 63 1014.8
20260503012131 70 0 0.0 0.0 0.00 0.05 0.00 61 1014.8
20260503011231 70 0 0.0 0.0 0.00 0.06 0.00 59 1014.8
20260503010331 71 0 0.0 0.0 0.00 0.08 0.00 58 1014.6
20260503005431 72 0 0.0 0.0 0.00 0.08 0.00 59 1014.3
20260503002732 73 0 0.0 0.0 0.00 0.09 0.00 56 1014.2
20260503000032 74 23 3.0 10.0 0.00 0.15 0.00 53 1014.0
20260502234231 75 21 5.0 12.0 0.00 0.21 0.00 53 1013.9
20260502233331 75 33 2.0 10.0 0.00 0.22 0.00 52 1013.8
20260502232431 75 13 5.0 13.0 0.00 0.23 0.00 54 1013.8
20260502224831 76 12 5.0 19.0 0.00 0.27 0.00 52 1013.7
20260502223931 76 15 2.0 9.0 0.00 0.27 0.00 59 1013.8
20260502223031 76 17 5.0 13.0 0.00 0.27 0.00 52 1013.8
20260502222132 76 20 6.0 15.0 0.00 0.27 0.00 53 1013.9
20260502221231 77 16 4.0 15.0 0.00 0.27 0.00 52 1013.9
20260502220332 76 43 3.0 10.0 0.00 0.28 0.00 53 1013.9
20260502213631 76 16 7.0 15.0 0.00 0.49 0.00 51 1014.1
20260502212732 76 10 5.0 15.0 0.00 0.54 0.00 53 1014.1